BKP219 VTBS-VTSM

Flight info

Callsign BKP219
Flight time N/A
Altitude 29000
Route KASNI3J KASNI M757 MABKO W33 UPNEP
Aircraft A20N/M-SDE2E3FGHIRWXY/LB1

Departure

Time N/A
Airport Suvarnabhumi Airport (VTBS)

Arrival

Time 2026-04-10 22:54
Airport Samui International Airport (VTSM)
Time Latitude Longitude Altitude Speed Heading
2026-04-10 22:33 10.48394 100.61204 20275 ft 365 kts 180°
2026-04-10 22:33 10.46712 100.61163 19877 ft 366 kts 180°
2026-04-10 22:34 10.43302 100.61079 19085 ft 367 kts 180°
2026-04-10 22:34 10.40743 100.61017 18504 ft 368 kts 180°
2026-04-10 22:34 10.38189 100.60955 17865 ft 365 kts 180°
2026-04-10 22:34 10.37364 100.60934 17654 ft 363 kts 180°
2026-04-10 22:35 10.33241 100.60833 16580 ft 351 kts 181°
2026-04-10 22:35 10.30823 100.60774 15953 ft 345 kts 181°
2026-04-10 22:35 10.28446 100.60717 15332 ft 339 kts 181°
2026-04-10 22:35 10.26105 100.60660 14732 ft 334 kts 181°
2026-04-10 22:36 10.23803 100.60604 14143 ft 329 kts 181°
2026-04-10 22:36 10.21524 100.60548 13526 ft 325 kts 182°
2026-04-10 22:36 10.20032 100.60510 13100 ft 323 kts 181°
2026-04-10 22:36 10.17054 100.60435 12228 ft 318 kts 181°
2026-04-10 22:37 10.15595 100.60399 11827 ft 316 kts 181°
2026-04-10 22:37 10.12704 100.60326 11017 ft 312 kts 181°
2026-04-10 22:37 10.10543 100.60272 10412 ft 309 kts 180°
2026-04-10 22:37 10.09133 100.60236 10201 ft 300 kts 180°
2026-04-10 22:38 10.06454 100.60167 10005 ft 276 kts 180°
2026-04-10 22:38 10.05211 100.60135 9911 ft 264 kts 180°
2026-04-10 22:38 10.03430 100.60091 9724 ft 250 kts 180°
2026-04-10 22:38 10.01721 100.60050 9459 ft 240 kts 180°
2026-04-10 22:39 10.00036 100.60010 9317 ft 245 kts 180°
2026-04-10 22:39 9.98333 100.59967 9312 ft 243 kts 180°
2026-04-10 22:39 9.96632 100.59927 9314 ft 246 kts 180°
2026-04-10 22:39 9.94354 100.59872 9307 ft 245 kts 180°
2026-04-10 22:40 9.93230 100.59844 9308 ft 244 kts 180°
2026-04-10 22:40 9.91532 100.59803 9310 ft 245 kts 180°
2026-04-10 22:40 9.89827 100.59761 9310 ft 245 kts 180°
2026-04-10 22:40 9.88127 100.59720 9312 ft 245 kts 180°
2026-04-10 22:41 9.86414 100.59682 9310 ft 247 kts 180°
2026-04-10 22:41 9.84703 100.59640 9309 ft 246 kts 180°
2026-04-10 22:41 9.82995 100.59595 9308 ft 244 kts 180°
2026-04-10 22:41 9.81324 100.59331 9312 ft 246 kts 202°
2026-04-10 22:42 9.79914 100.58334 9314 ft 251 kts 220°
2026-04-10 22:42 9.78649 100.57150 9307 ft 249 kts 223°
2026-04-10 22:42 9.77399 100.55946 9312 ft 247 kts 222°
2026-04-10 22:42 9.76147 100.54747 9309 ft 248 kts 222°
2026-04-10 22:43 9.74884 100.53552 9308 ft 248 kts 221°
2026-04-10 22:43 9.73624 100.52372 9180 ft 246 kts 221°
2026-04-10 22:43 9.72400 100.51154 8852 ft 248 kts 233°
2026-04-10 22:43 9.71744 100.49552 8464 ft 250 kts 263°
2026-04-10 22:44 9.71765 100.47798 8215 ft 246 kts 274°
2026-04-10 22:44 9.71878 100.46055 8143 ft 251 kts 274°
2026-04-10 22:44 9.71992 100.44313 8052 ft 250 kts 274°
2026-04-10 22:44 9.72100 100.42568 8010 ft 248 kts 274°
2026-04-10 22:45 9.72199 100.40836 7969 ft 242 kts 273°
2026-04-10 22:45 9.72289 100.39202 7867 ft 225 kts 273°
2026-04-10 22:45 9.72373 100.37632 7487 ft 221 kts 274°
2026-04-10 22:45 9.72453 100.36096 7110 ft 217 kts 274°
2026-04-10 22:46 9.72520 100.34569 6710 ft 216 kts 273°
2026-04-10 22:46 9.72579 100.33051 6293 ft 214 kts 273°
2026-04-10 22:46 9.72636 100.31544 5808 ft 212 kts 273°
2026-04-10 22:46 9.72695 100.30063 5356 ft 209 kts 273°
2026-04-10 22:47 9.72752 100.28620 4922 ft 206 kts 274°
2026-04-10 22:47 9.72810 100.27181 4490 ft 202 kts 274°
2026-04-10 22:47 9.72868 100.25768 4059 ft 198 kts 274°
2026-04-10 22:47 9.72928 100.24397 3724 ft 190 kts 274°
2026-04-10 22:48 9.72984 100.23088 3479 ft 179 kts 273°
2026-04-10 22:48 9.73038 100.21795 3395 ft 187 kts 273°
2026-04-10 22:48 9.73093 100.20489 3313 ft 184 kts 273°
2026-04-10 22:48 9.73145 100.19191 3304 ft 186 kts 273°
2026-04-10 22:49 9.73198 100.17893 3223 ft 182 kts 274°
2026-04-10 22:49 9.73250 100.16619 2920 ft 180 kts 274°
2026-04-10 22:49 9.73303 100.15356 2906 ft 183 kts 273°
2026-04-10 22:49 9.73356 100.14084 2905 ft 183 kts 273°
2026-04-10 22:50 9.73409 100.12798 2906 ft 183 kts 273°
2026-04-10 22:50 9.73426 100.11513 2898 ft 183 kts 263°
2026-04-10 22:50 9.72837 100.10380 2906 ft 188 kts 224°
2026-04-10 22:50 9.71695 100.09735 2906 ft 190 kts 206°
2026-04-10 22:51 9.70489 100.09197 2872 ft 187 kts 205°
2026-04-10 22:51 9.69306 100.08677 2602 ft 185 kts 206°
2026-04-10 22:51 9.68139 100.08155 2383 ft 182 kts 205°
2026-04-10 22:51 9.66990 100.07632 2290 ft 183 kts 205°
2026-04-10 22:52 9.65832 100.07101 2206 ft 182 kts 205°
2026-04-10 22:52 9.64692 100.06578 1958 ft 179 kts 205°
2026-04-10 22:52 9.63558 100.06057 1580 ft 179 kts 205°
2026-04-10 22:52 9.62417 100.05612 1365 ft 173 kts 193°
2026-04-10 22:53 9.61187 100.05669 1307 ft 179 kts 172°
2026-04-10 22:53 9.59972 100.05748 992 ft 169 kts 179°
2026-04-10 22:53 9.58820 100.05877 695 ft 164 kts 173°
2026-04-10 22:53 9.57687 100.05963 551 ft 167 kts 173°
2026-04-10 22:54 9.56538 100.06082 270 ft 164 kts 175°
2026-04-10 22:54 9.55403 100.06194 88 ft 165 kts 175°
2026-04-10 22:54 9.54434 100.06285 54 ft 81 kts 175°
2026-04-10 22:54 9.54199 100.06307 55 ft 21 kts 174°
2026-04-10 22:55 9.54025 100.06325 53 ft 27 kts 174°
2026-04-10 22:55 9.53870 100.06315 58 ft 18 kts 172°
2026-04-10 22:55 9.53850 100.06329 57 ft 1 kts 82°
2026-04-10 22:55 9.53888 100.06340 59 ft 15 kts 357°
2026-04-10 22:56 9.54061 100.06320 55 ft 35 kts 354°
2026-04-10 22:56 9.54277 100.06301 53 ft 33 kts 353°
2026-04-10 22:56 9.54528 100.06277 61 ft 40 kts 353°
2026-04-10 22:56 9.54757 100.06254 62 ft 28 kts 354°
2026-04-10 22:57 9.54916 100.06237 58 ft 23 kts 354°
2026-04-10 22:57 9.55007 100.06272 58 ft 16 kts 81°
2026-04-10 22:57 9.55035 100.06310 63 ft 7 kts 15°
2026-04-10 22:57 9.55096 100.06309 65 ft 0 kts 22°
2026-04-10 22:58 9.55118 100.06330 58 ft 2 kts 68°
2026-04-10 22:58 9.55118 100.06338 58 ft 0 kts 78°